Murray, KY

7:12 PM CDT on September 20, 2017 (GMT -0500)
Kyle-Oakley

Weather History for KCEY - April, 2013

Change the Weather History Date:

Friday, April 12, 2013

  Actual Average (KPAH) Record (KPAH)
Temperature  
Mean Temperature 47 °F -  
Max Temperature 59 °F 69 °F 84 °F (1977)
Min Temperature 35 °F 47 °F 26 °F (1990)
Degree Days  
Heating Degree Days 18    
Moisture  
Dew Point 37 °F    
Average Humidity 68    
Maximum Humidity 100    
Minimum Humidity 45    
Precipitation  
Precipitation 0.00 in - - ()
Sea Level Pressure  
Sea Level Pressure 29.87 in    
Wind  
Wind Speed 10 mph (West)    
Max Wind Speed 24 mph    
Max Gust Speed 31 mph    
Visibility 10 miles    
Events      
Averages and records for this station are not official NWS values.
T = Trace of Precipitation, MM = Missing Value Source: NWS Daily Summary

Daily Weather History Graph

Daily Weather History Graph

Search for Another Location

Airport or City:

Trip Planner

Search our weather history database for the weather conditions in past years. The results will help you decide how hot, cold, wet, or windy it might be!

Date:

Astronomy

Apr. 12, 2013 Rise Set
Actual Time 6:23 AM CDT 7:25 PM CDT
Civil Twilight 5:56 AM CDT 7:52 PM CDT
Nautical Twilight 5:25 AM CDT 8:23 PM CDT
Astronomical Twilight 4:52 AM CDT 8:56 PM CDT
Moon 7:36 AM CDT (4/12) 9:52 PM CDT (4/12)
Length of Visible Light 13h 55m
Length of Day
13h 02m
Waxing Crescent, 5% of the Moon is Illuminated
Apr 12
Waxing Crescent
Apr 18
First Quarter
Apr 25
Full
May 2
Last Quarter
May 9
New

Hourly Weather History & Observations

Time (CDT) Temp. Windchill Dew Point Humidity Pressure Visibility Wind Dir Wind Speed Gust Speed Precip Events Conditions
12:15 AM 44.6 °F 39.2 °F 41.0 °F 87% 29.76 in 10.0 mi WNW 10.4 mph - N/A   Partly Cloudy
12:35 AM 44.6 °F 38.8 °F 41.0 °F 87% 29.77 in 10.0 mi NW 11.5 mph - N/A   Partly Cloudy
12:55 AM 44.6 °F 38.8 °F 39.2 °F 81% 29.78 in 10.0 mi NW 11.5 mph - N/A   Clear
1:15 AM 42.8 °F 37.0 °F 37.4 °F 81% 29.78 in 10.0 mi NW 10.4 mph - N/A   Clear
1:35 AM 41.0 °F 35.2 °F 35.6 °F 81% 29.79 in 10.0 mi NNW 9.2 mph - N/A   Clear
1:55 AM 41.0 °F 37.1 °F 35.6 °F 81% 29.78 in 10.0 mi NW 5.8 mph - N/A   Clear
2:15 AM 41.0 °F 37.1 °F 35.6 °F 81% 29.78 in 10.0 mi NW 5.8 mph - N/A   Clear
2:55 AM 39.2 °F 35.0 °F 35.6 °F 87% 29.79 in 10.0 mi NW 5.8 mph - N/A   Clear
3:15 AM 39.2 °F 37.0 °F 35.6 °F 87% 29.80 in 10.0 mi West 3.5 mph - N/A   Clear
3:35 AM 37.4 °F 33.8 °F 35.6 °F 93% 29.81 in 10.0 mi SW 4.6 mph - N/A   Clear
4:15 AM 35.6 °F 31.7 °F 35.6 °F 100% 29.81 in 10.0 mi SSW 4.6 mph - N/A   Clear
4:35 AM 37.4 °F 32.8 °F 35.6 °F 93% 29.82 in 10.0 mi SSW 5.8 mph - N/A   Clear
4:55 AM 37.4 °F 32.8 °F 35.6 °F 93% 29.83 in 10.0 mi SSW 5.8 mph - N/A   Clear
5:15 AM 37.4 °F 32.8 °F 35.6 °F 93% 29.83 in 10.0 mi SSW 5.8 mph - N/A   Clear
5:35 AM 37.4 °F 32.8 °F 33.8 °F 87% 29.84 in 10.0 mi SSW 5.8 mph - N/A   Clear
5:55 AM 37.4 °F 33.8 °F 35.6 °F 93% 29.84 in 10.0 mi SW 4.6 mph - N/A   Clear
6:15 AM 37.4 °F 32.8 °F 33.8 °F 87% 29.84 in 10.0 mi SSW 5.8 mph - N/A   Clear
6:35 AM 37.4 °F 32.1 °F 35.6 °F 93% 29.84 in 10.0 mi South 6.9 mph - N/A   Clear
6:55 AM 37.4 °F 32.1 °F 35.6 °F 93% 29.85 in 10.0 mi SSW 6.9 mph - N/A   Clear
7:15 AM 39.2 °F 35.0 °F 35.6 °F 87% 29.85 in 10.0 mi SSW 5.8 mph - N/A   Clear
7:35 AM 41.0 °F 37.1 °F 35.6 °F 81% 29.85 in 10.0 mi SSW 5.8 mph - N/A   Clear
7:55 AM 41.0 °F 37.1 °F 37.4 °F 87% 29.85 in 10.0 mi SSW 5.8 mph - N/A   Clear
8:15 AM 44.6 °F 40.2 °F 37.4 °F 76% 29.86 in 10.0 mi SW 8.1 mph - N/A   Clear
8:35 AM 46.4 °F 42.4 °F 37.4 °F 71% 29.86 in 10.0 mi WSW 8.1 mph - N/A   Clear
1:35 PM 57.2 °F - 37.4 °F 48% 29.87 in 10.0 mi West 19.6 mph 28.8 mph N/A   Mostly Cloudy
1:55 PM 57.2 °F - 39.2 °F 51% 29.87 in 10.0 mi West 19.6 mph 28.8 mph N/A   Scattered Clouds
2:15 PM 59.0 °F - 39.2 °F 48% 29.87 in 10.0 mi WSW 20.7 mph 31.1 mph N/A   Mostly Cloudy
2:35 PM 59.0 °F - 39.2 °F 48% 29.87 in 10.0 mi West 16.1 mph 31.1 mph N/A   Mostly Cloudy
2:55 PM 59.0 °F - 39.2 °F 48% 29.87 in 10.0 mi West 24.2 mph 28.8 mph N/A   Scattered Clouds
3:15 PM 59.0 °F - 39.2 °F 48% 29.87 in 10.0 mi West 17.3 mph 25.3 mph N/A   Mostly Cloudy
3:35 PM 59.0 °F - 39.2 °F 48% 29.87 in 10.0 mi West 21.9 mph 26.5 mph N/A   Mostly Cloudy
3:55 PM 59.0 °F - 39.2 °F 48% 29.87 in 10.0 mi West 21.9 mph 29.9 mph N/A   Scattered Clouds
4:15 PM 57.2 °F - 37.4 °F 48% 29.88 in 10.0 mi West 19.6 mph 26.5 mph N/A   Mostly Cloudy
4:35 PM 59.0 °F - 39.2 °F 48% 29.88 in 10.0 mi West 19.6 mph 25.3 mph N/A   Mostly Cloudy
4:55 PM 59.0 °F - 39.2 °F 48% 29.88 in 10.0 mi West 15.0 mph 23.0 mph N/A   Scattered Clouds
5:15 PM 57.2 °F - 39.2 °F 51% 29.88 in 10.0 mi WSW 16.1 mph 21.9 mph N/A   Scattered Clouds
5:35 PM 57.2 °F - 39.2 °F 51% 29.88 in 10.0 mi West 10.4 mph 17.3 mph N/A   Scattered Clouds
5:55 PM 59.0 °F - 37.4 °F 45% 29.88 in 10.0 mi West 15.0 mph 19.6 mph N/A   Mostly Cloudy
6:15 PM 57.2 °F - 39.2 °F 51% 29.89 in 10.0 mi West 12.7 mph 17.3 mph N/A   Scattered Clouds
6:35 PM 57.2 °F - 39.2 °F 51% 29.90 in 10.0 mi WNW 12.7 mph - N/A   Partly Cloudy
6:55 PM 57.2 °F - 37.4 °F 48% 29.90 in 10.0 mi West 10.4 mph - N/A   Partly Cloudy
7:15 PM 55.4 °F - 37.4 °F 51% 29.91 in 10.0 mi West 6.9 mph - N/A   Partly Cloudy
7:35 PM 53.6 °F - 37.4 °F 54% 29.91 in 10.0 mi West 6.9 mph - N/A   Clear
7:55 PM 53.6 °F - 35.6 °F 51% 29.92 in 10.0 mi West 6.9 mph - N/A   Clear
8:15 PM 51.8 °F - 35.6 °F 54% 29.92 in 10.0 mi West 6.9 mph - N/A   Clear
8:35 PM 50.0 °F - 35.6 °F 58% 29.92 in 10.0 mi West 6.9 mph - N/A   Clear
8:55 PM 50.0 °F - 37.4 °F 62% 29.93 in 10.0 mi West 4.6 mph - N/A   Clear
9:15 PM 50.0 °F - 35.6 °F 58% 29.94 in 10.0 mi West 3.5 mph - N/A   Clear
9:35 PM 50.0 °F - 35.6 °F 58% 29.95 in 10.0 mi WNW 3.5 mph - N/A   Clear
9:55 PM 48.2 °F - 35.6 °F 62% 29.97 in 10.0 mi North 10.4 mph - N/A   Clear
10:15 PM 48.2 °F - 35.6 °F 62% 29.99 in 10.0 mi NNE 9.2 mph - N/A   Clear
10:35 PM 46.4 °F 41.9 °F 35.6 °F 66% 29.99 in 10.0 mi North 9.2 mph - N/A   Clear
10:55 PM 46.4 °F 41.9 °F 35.6 °F 66% 30.00 in 10.0 mi North 9.2 mph - N/A   Clear
11:15 PM 44.6 °F 39.7 °F 35.6 °F 71% 30.01 in 10.0 mi North 9.2 mph - N/A   Clear
11:35 PM 44.6 °F 39.7 °F 35.6 °F 71% 30.02 in 10.0 mi NNE 9.2 mph - N/A   Clear
11:55 PM 44.6 °F 39.7 °F 35.6 °F 71% 30.03 in 10.0 mi North 9.2 mph - N/A   Clear